HAIYANG-1B

Last updated on Mon Sep 07 2026 00:02:45 GMT+0000 (Coordinated Universal Time)

1 31113U 07010A 26249.53128919 .00000050 00000+0 34835-4 0 9999 2 31113 98.3592 228.2561 0012841 325.3072 34.7273 14.31044022 12270
UTC large
Height (km)
Speed (km/s)
/
Latitude / Longitude
Inclination (degrees)
Orbital Period (minutes)
Azimuth
Elevation
Range (km)
Doppler Factor

Next 0 passes for location: London (51.5072 / 0.1276)

No passes found over London.
HAIYANG-1B